Flag for Germany Weather past 2 weeks in Hoyerswerda, Saxony, Germany

Now
68 °F

Overcast.


Feels Like: 68 °F
Forecast: 47 / 71 °F
Wind: 2 mph from Northwest

Location: Cottbus


UV Index: 3 (Moderate)

Visibility: 18 mi


Pressure: 30.08 "Hg

Humidity: 52%

Dew point: 50 °F

Location of HoyerswerdaLocation

Historic Weather in Hoyerswerda

°F

Hoyerswerda temperature yesterday

Maximum temperature yesterday: 72 °F (at 3:00 PM)
Minimum temperature yesterday: 46 °F (at 6:00 AM)
Average temperature yesterday: 56 °F

Past Weeks' High & Low Weather Summary

 TemperatureHumidityPressure
High72 °F (Apr 22, 3:00 PM)100% (Apr 23, 3:00 AM)30.44 "Hg (Apr 23, 3:00 AM)
Low29 °F (Apr 17, 6:00 AM)29% (Apr 17, 5:00 PM)29.72 "Hg (Apr 14, 1:00 PM)
Average50 °F72%30.01 "Hg
* Reported Apr 8 4:00 PM — Apr 23 4:00 PM, Hoyerswerda, Weather by CustomWeather, © 2014

Note: Actual official high and low records may vary slightly from our data, if they occured in-between our weather recording intervals... More about our weather records

Advertising

Historic Weather Conditions — Data for Previous 24 hours

 ConditionsComfort  
Time TempWeatherWind HumidityBarometerVisibility
4:00 PM
Apr 23
67 °FOvercast.1 mph53%30.09 "Hg18 mi
3:00 PM67 °FOvercast.1 mph57%30.10 "Hg16 mi
2:00 PM66 °FOvercast.2 mph63%30.10 "Hg11 mi
1:00 PM65 °FOvercast.2 mph63%30.10 "Hg11 mi
12:00 PM64 °FPartly sunny.1 mph69%30.11 "Hg9 mi
11:00 AM60 °FOvercast.2 mph78%30.11 "Hg6 mi
10:00 AM57 °FOvercast.1 mph87%30.10 "Hg5 mi
9:00 AM54 °FFog.2 mph91%30.09 "Hg4 mi
8:00 AM51 °FFog.1 mph99%30.08 "Hg3 mi
7:00 AM50 °FFog.1 mph100%30.07 "Hg2 mi
6:00 AM47 °FFog.1 mph100%30.05 "Hg1 mi
5:00 AM49 °FFog.1 mph99%30.04 "Hg2 mi
4:00 AM49 °FFog.1 mph100%30.03 "Hg1 mi
3:00 AM50 °FFog.1 mph100%30.02 "Hg2 mi
2:00 AM49 °FOvercast.1 mph99%30.02 "Hg1 mi
1:00 AM51 °FOvercast.1 mph99%30.01 "Hg1 mi
12:00 AM52 °FOvercast.1 mph99%29.99 "Hg1 mi
11:00 PM
Apr 22
53 °FFog.1 mph99%29.99 "Hg1 mi
10:00 PM53 °FFog.1 mph98%29.97 "Hg1 mi
9:00 PM54 °FFog.1 mph97%29.96 "Hg2 mi
8:00 PM57 °FOvercast.1 mph93%29.94 "Hg5 mi
7:00 PM56 °FRain. Low clouds.1 mph96%29.92 "Hg2 mi
6:00 PM56 °FRain. Low clouds.1 mph94%29.93 "Hg4 mi
5:00 PM57 °FRain. Low clouds.2 mph92%29.91 "Hg1 mi
Weather by CustomWeather, © 2014

See weather overview